SCP
1 1 1 1 1 1 1 1 1 1 1 1 1 1 0 0 1 1 1 1 1 1 1 1 1 1 1 1 1 1 1 1 1 1 1 1 1 0 0 0 0 0 0
1 1 1 1 1 1 1 1 1 1 1 1 1 1 1 1 1 1 1 1 1 1 1 1 1 1 1 1 1 1 1 1 1 1 1 1 1 1 1 0 0 0 0
1 1 1 1 1 1 1 1 1 1 1 1 1 1 1 1 1 1 1 1 1 1 1 1 1 1 1 1 1 1 1 1 1 1 1 1 1 1 1 1 1 1 1
1 1 1 1 1 1 1 1 1 1 1 1 1 1 1 1 1 1 1 1 1 1 1 2 2 2 2 2 1 1 1 1 1 1 1 1 1 1 1 1 1 1 1
1 1 1 1 1 1 1 1 1 1 1 1 1 1 1 1 1 1 1 1 1 2 2 2 2 2 2 2 2 2 1 1 1 1 1 1 1 1 1 1 1 1 1
1 1 1 1 1 1 1 1 1 1 1 1 1 1 1 2 2 2 1 1 1 2 2 2 2 2 2 2 2 2 2 2 2 1 1 1 1 1 1 1 1 1 1
1 1 1 1 1 1 2 2 2 2 1 1 1 1 1 2 2 2 2 1 1 2 2 2 2 2 1 1 2 2 2 2 2 2 2 2 1 1 1 1 1 1 1
2 1 1 1 1 1 2 2 2 2 1 1 2 1 2 2 2 2 2 2 1 1 1 2 2 2 2 2 1 1 2 2 2 2 2 2 1 1 1 1 1 1 1
2 2 2 2 1 1 2 2 3 2 2 2 2 2 2 2 2 2 2 2 2 1 1 1 2 2 2 2 2 2 2 2 2 2 2 2 1 1 1 1 1 1 1
3 2 2 2 2 1 2 2 3 3 2 2 2 2 2 2 2 2 2 2 2 1 1 1 1 2 2 2 2 2 2 2 2 2 2 2 2 1 1 1 1 1 1
3 3 2 2 2 2 2 2 2 3 3 3 2 2 2 2 2 2 2 2 2 1 1 1 1 1 2 2 2 2 2 2 2 2 2 2 2 1 1 1 1 1 1
3 3 3 3 3 3 2 2 2 3 3 3 3 3 2 2 2 2 1 1 1 1 1 1 1 1 1 1 1 1 1 1 1 1 1 1 1 1 1 1 1 1 1
3 3 4 4 4 4 3 3 3 3 3 3 3 3 3 2 2 2 1 1 1 2 2 2 2 1 2 2 2 1 1 1 1 0 0 1 1 1 1 1 1 1 1
3 4 5 6 5 5 4 4 3 4 4 4 3 3 3 2 2 2 1 1 1 2 2 2 2 2 3 3 2 1 1 1 0 0 0 0 0 1 1 0 0 0 0
4 4 5 6 6 6 6 5 4 4 4 4 4 3 3 3 3 2 2 2 2 2 2 2 2 3 4 4 2 1 1 1 0 0 0 0 0 0 0 0 0 0 0
5 5 6 6 7 7 7 6 6 6 5 4 4 4 3 3 3 3 3 2 2 2 2 2 3 3 3 3 2 2 2 2 1 1 0 0 0 0 0 0 0 0 0
5 6 6 6 7 8 8 9 8 8 6 5 4 4 3 3 3 3 3 3 3 3 2 2 3 3 2 2 2 3 3 3 2 1 0 0 0 0 0 0 0 0 0
6 6 6 6 6 7 9 9 9 8 7 5 5 4 3 3 3 4 3 3 3 3 2 2 2 2 2 2 2 3 3 3 2 1 0 0 0 0 0 0 0 0 0
7 7 7 6 6 7 8 8 8 7 6 5 4 4 3 4 4 4 3 3 2 2 2 2 2 2 2 2 2 3 3 3 3 1 1 0 0 0 0 0 0 0 0
9 8 8 8 7 7 7 7 6 6 5 5 4 3 3 4 4 4 3 3 3 2 2 3 3 3 3 3 2 2 2 3 3 2 1 1 0 0 0 0 0 0 0
10 9 9 9 8 7 7 6 6 5 5 5 4 4 3 4 4 4 4 3 4 3 3 3 3 3 3 2 2 2 2 2 2 2 1 1 1 1 1 0 0 0 0
11 10 10 10 9 7 6 6 5 5 6 5 5 4 4 4 4 4 4 3 3 4 4 4 4 3 3 3 2 2 1 2 2 2 2 1 1 1 1 1 0 0 0
12 11 11 11 10 8 6 5 4 5 6 6 5 5 5 4 4 5 4 4 4 3 3 4 4 3 3 3 3 2 2 2 2 2 2 1 1 1 1 1 0 0 0
11 11 11 11 10 7 5 4 3 4 5 5 5 5 5 5 5 5 5 5 5 4 4 3 4 3 3 3 3 3 2 2 2 2 2 2 2 1 1 1 0 0 0
10 10 10 10 9 7 5 3 3 4 5 4 4 5 5 5 4 4 5 6 7 6 5 4 3 3 2 2 2 2 2 2 2 2 2 3 2 2 2 1 1 0 0
11 11 10 9 8 7 6 4 3 4 5 5 4 4 4 4 4 3 4 6 7 6 5 4 3 2 2 1 1 2 2 2 2 2 2 3 3 2 2 2 1 0 0
Wind_Speed
2 3 2 1 2 3 3 2 1 2 1 1 1 1 1 3 5 6 5 11 11 10 10 9 9 8 8 7 7 7 7 7 7 7 6 7 7 7 7 7 6 5 5
2 2 2 1 1 2 2 1 1 1 1 1 0 1 1 2 4 6 6 7 10 9 9 9 9 8 8 7 8 8 8 8 8 7 7 6 6 6 7 6 6 6 5
2 1 1 1 1 1 1 1 1 1 1 1 1 0 1 1 2 4 5 4 5 7 8 7 8 8 8 8 8 9 9 9 8 8 7 7 7 6 6 6 6 6 6
2 1 1 1 1 1 1 1 1 0 0 1 1 0 1 1 2 3 3 4 4 5 6 8 7 7 7 7 8 8 8 8 8 8 8 8 7 7 6 6 6 6 6
3 2 1 1 1 1 1 1 1 0 0 0 1 1 1 1 1 2 2 3 4 4 4 6 8 7 7 6 6 7 8 8 9 9 8 8 8 7 6 6 6 6 6
3 2 2 2 1 1 1 1 1 0 1 1 2 1 1 2 1 1 1 2 2 3 4 5 5 5 7 6 5 6 7 8 8 9 9 9 8 8 7 6 6 6 6
1 1 0 2 1 1 1 1 1 1 1 1 0 1 0 1 2 2 2 1 2 1 2 4 3 2 3 5 4 4 5 6 6 8 8 9 8 7 7 6 5 5 5
1 1 1 1 1 1 1 1 1 1 1 1 1 1 0 0 0 1 2 2 2 2 2 3 3 3 2 2 2 3 3 5 5 6 7 7 7 7 6 6 6 6 6
2 0 1 0 0 1 1 1 1 1 1 1 1 1 1 1 1 0 1 2 2 1 2 2 3 3 2 2 3 3 4 4 5 5 6 7 7 7 7 7 7 7 7
2 2 1 1 0 1 1 1 1 1 1 1 1 1 2 1 1 1 1 1 2 1 1 1 2 3 3 3 3 4 4 4 4 4 5 6 7 7 7 8 8 8 7
2 2 2 1 1 0 1 1 1 0 1 1 1 1 1 1 2 2 1 1 1 1 2 2 2 2 3 3 3 4 5 5 4 4 4 5 5 6 7 8 9 8 7
3 3 2 2 1 0 0 0 0 0 1 1 2 2 1 1 1 1 1 2 2 1 2 2 2 2 3 3 5 8 7 6 5 5 5 5 4 4 5 6 7 7 7
3 3 3 2 2 1 1 1 1 1 1 1 2 2 2 2 1 1 1 1 1 1 1 2 2 3 3 4 5 8 7 6 5 5 5 5 4 4 5 5 6 6 6
2 3 3 3 2 2 2 1 1 2 1 2 2 1 2 2 1 1 1 1 1 1 1 2 2 3 3 4 5 6 5 6 5 5 5 4 4 4 5 5 5 5 6
2 3 4 3 3 2 1 1 1 2 1 1 2 1 2 1 1 1 1 2 2 1 1 2 2 3 3 4 5 4 4 6 6 5 5 5 5 6 6 6 6 6 6
1 2 3 3 3 3 3 2 2 2 2 2 2 1 1 2 1 1 1 1 1 2 1 2 2 3 3 4 5 4 5 7 6 5 5 6 7 7 7 7 7 7 8
2 3 3 3 3 4 3 3 3 3 3 3 2 2 1 1 1 1 1 1 1 1 2 2 2 3 4 4 4 4 4 4 3 5 6 7 7 8 8 8 8 7 8
4 4 4 3 4 4 3 4 4 3 3 3 2 1 1 1 1 1 1 1 0 2 3 4 3 3 3 4 4 4 4 4 4 6 7 8 8 8 8 7 7 7 7
4 4 4 4 3 3 3 3 3 3 2 2 2 1 1 1 1 1 1 1 1 1 3 4 4 3 2 3 4 3 3 2 4 6 7 7 7 8 8 8 7 7 6
4 3 3 3 3 3 3 3 3 3 3 2 1 1 1 1 2 2 2 1 1 1 2 3 4 4 3 3 3 3 2 2 2 4 5 5 7 7 8 8 8 8 7
5 3 3 3 3 3 3 2 3 3 2 2 2 2 2 1 1 1 1 1 1 2 2 3 4 4 3 4 4 3 3 3 2 3 4 4 4 4 4 7 8 8 8
4 4 4 3 4 3 2 3 2 2 2 2 2 2 3 4 4 4 3 2 2 3 3 3 3 4 5 4 4 4 3 3 3 3 4 4 5 5 4 4 7 9 9
3 3 3 3 3 3 4 4 3 2 2 2 2 2 3 2 4 3 4 5 4 5 5 3 3 4 4 5 5 5 4 4 3 4 4 3 4 5 5 7 12 11 11
4 4 3 3 3 3 5 5 4 3 3 2 3 3 3 1 2 2 3 3 3 3 4 4 4 4 4 4 5 5 5 3 2 3 4 3 3 3 4 4 13 14 13
3 4 3 3 3 3 5 5 4 3 3 3 3 3 3 2 2 3 3 3 3 3 4 4 4 4 5 5 4 3 4 3 3 3 3 3 3 3 3 4 7 14 14
4 3 3 3 3 3 5 5 5 3 3 3 3 2 2 2 3 3 3 3 3 3 3 3 3 4 5 5 7 5 4 4 3 3 4 3 3 3 3 3 5 7 8
Wind_Direction
100 99 92 109 145 140 153 163 152 152 167 230 234 197 81 100 113 120 136 158 160 164 166 170 177 183 188 194 194 196 196 193 190 190 197 201 203 204 202 201 201 199 203
100 107 132 120 93 126 146 162 186 175 180 160 46 43 52 87 118 132 142 161 168 170 173 180 185 190 195 202 206 207 208 203 196 195 198 201 202 204 205 208 207 207 210
125 140 165 154 180 159 139 164 193 170 183 147 137 134 112 85 112 135 144 151 165 176 181 188 192 193 203 208 214 215 215 209 201 199 200 200 202 207 212 214 211 210 207
146 151 161 164 194 174 152 166 194 185 98 125 134 162 99 114 139 149 150 160 162 169 181 189 190 194 200 206 216 216 209 205 203 201 200 199 199 203 210 212 209 209 205
155 173 177 166 215 163 142 208 96 76 147 146 195 180 169 147 158 167 149 168 166 157 163 179 180 180 186 198 208 211 211 208 208 205 202 203 204 204 208 210 207 208 202
157 184 183 174 211 143 123 87 98 225 195 217 247 126 155 160 159 156 172 144 132 154 160 158 173 186 188 196 207 215 212 205 205 205 207 211 210 208 205 205 202 204 201
147 166 77 139 202 145 146 171 164 201 205 178 107 48 345 156 162 161 151 131 120 137 136 141 156 161 173 189 197 201 206 199 200 200 203 205 203 199 190 191 194 200 203
171 159 163 207 161 159 187 183 153 223 235 174 155 168 225 162 296 152 142 149 148 139 128 140 135 139 145 146 150 178 193 193 189 183 185 187 187 181 184 191 196 202 203
161 103 127 182 312 235 156 193 211 228 234 236 207 190 205 201 159 160 166 139 131 121 126 128 130 135 149 137 144 164 177 173 177 177 177 180 177 180 186 193 199 199 199
166 160 148 160 87 337 97 207 130 270 256 264 248 224 225 187 187 174 188 146 148 149 147 155 127 129 132 124 125 137 153 156 168 174 168 167 172 182 188 193 195 195 194
168 154 152 138 119 340 61 42 31 341 290 304 304 288 258 226 201 192 195 179 175 164 162 148 126 121 114 115 114 108 120 132 141 143 147 156 170 180 188 193 194 193 189
167 172 164 141 139 168 120 77 303 263 338 331 314 312 305 281 236 206 202 180 164 159 140 125 123 117 113 106 105 106 111 115 115 117 125 132 146 163 175 181 182 182 179
165 169 169 148 162 199 188 188 203 239 267 285 279 291 299 284 277 215 184 182 146 141 130 124 118 117 114 112 112 116 109 112 113 113 116 118 124 138 149 152 160 164 163
168 159 162 161 173 207 222 201 221 226 212 265 271 282 297 292 301 240 199 166 176 151 120 116 117 106 109 114 120 124 113 115 113 114 115 120 119 118 124 130 131 133 134
183 160 166 174 180 194 231 247 227 247 231 255 278 285 284 289 280 259 212 179 182 187 163 139 117 115 118 113 129 126 119 118 115 111 110 115 118 113 109 111 114 118 120
200 175 178 182 184 184 193 226 241 233 215 220 229 234 279 300 313 299 230 216 195 174 151 131 122 129 123 120 128 122 115 119 115 120 122 123 122 118 113 111 111 116 118
198 199 199 196 195 195 196 210 236 221 220 228 239 220 236 275 313 309 288 231 179 145 134 123 119 123 122 122 126 129 133 132 128 127 128 128 127 127 123 121 118 117 119
200 201 203 207 211 202 201 208 234 227 223 231 233 224 240 260 264 283 295 288 185 143 139 140 135 135 132 137 140 148 149 148 140 137 137 135 133 133 132 130 127 126 125
201 203 205 208 217 215 207 213 219 224 225 236 240 228 228 247 250 258 256 248 200 140 137 146 152 148 144 152 146 156 156 150 155 147 146 144 144 143 142 139 137 136 136
203 203 207 210 213 217 215 220 216 219 220 222 222 218 239 241 236 238 228 206 174 140 133 145 149 154 151 161 161 169 173 179 166 158 151 150 152 154 155 152 150 149 149
206 203 208 212 217 215 219 218 232 219 219 221 214 206 208 192 185 176 214 175 167 163 162 161 162 165 169 173 183 186 181 176 181 171 159 167 164 169 169 168 164 163 162
202 205 210 212 218 222 177 170 206 241 222 227 225 213 197 196 176 164 162 159 162 184 182 178 188 186 185 185 180 185 182 180 189 183 172 184 175 182 179 175 176 173 173
202 213 212 205 207 191 166 170 191 241 226 229 238 235 244 207 171 184 190 189 189 197 193 194 200 205 194 189 187 192 196 201 202 179 176 195 183 187 186 181 176 178 181
202 209 212 201 205 188 173 181 200 228 235 226 226 230 228 198 206 193 203 193 195 199 207 209 212 216 210 196 195 196 195 198 200 188 173 189 194 196 183 170 176 179 183
205 209 211 206 202 177 181 186 189 219 228 236 233 231 226 198 187 177 197 204 210 217 216 209 201 198 201 204 192 185 192 191 205 207 194 191 190 181 169 171 180 183 185
209 206 207 211 199 176 182 188 194 218 229 232 229 223 211 196 166 178 204 210 218 229 209 196 197 206 208 207 202 200 201 205 204 208 195 188 189 176 185 178 171 181 192